Regional Weather Roundup
Issued by NWS

Home | Current Version | Previous Version | Graphics & Text | Print | Product List | Glossary On
Versions: 1 2 3 4 5 6 7 8 9 10 11 12 13 14 15 16 17 18 19 20 21 22 23 24 25 26 27 28 29 30 31 32 33 34 35 36 37 38 39 40 41 42 43 44 45 46 47 48 49 50
000
ASUS43 KDMX 250507
RWRIA

WEATHER ROUNDUP FOR IOWA
NATIONAL WEATHER SERVICE DES MOINES IA
1200 AM CDT SAT APR 25 2015

NOTE: "FAIR" INDICATES FEW OR NO CLOUDS BELOW 12,000 FEET WITH NO
SIGNIFICANT WEATHER AND/OR OBSTRUCTIONS TO VISIBILITY.

* - THESE STATIONS ARE NOT NWS STATIONS...THUS NOT UNDER NWS
QUALITY CONTROL.  THEY ALSO DO NOT REPORT WEATHER SUCH
AS PRECIPITATION OR FOG.

IAZ001>003-012>014-020>022-031>034-043>046-250600-
   NORTHWEST IOWA

CITY           SKY/WX    TMP DP  RH WIND       PRES   REMARKS
CARROLL *      CLOUDY    48  46  93 E17       29.61F
CHEROKEE *     CLOUDY    50  48  93 E8        29.62F
DENISON *      CLOUDY    50  50 100 E14G20    29.58F
LE MARS *      PTCLDY    52  48  87 SE12G20   29.60F
ORANGE CITY *  MOCLDY    46  45  93 E9G16     29.61F
SHELDON *      CLOUDY    48  48 100 SE17G23   29.63R
SIOUX CITY     CLOUDY    58  50  75 E12       29.57F
SPENCER        CLOUDY    48  44  86 E17       29.66S
STORM LAKE *   CLOUDY    48  46  93 SE16G24   29.63F
$$

IAZ055>058-069>071-079>083-090>094-250600-
   SOUTHWEST IOWA

CITY           SKY/WX    TMP DP  RH WIND       PRES   REMARKS
ATLANTIC *     CLOUDY    54  54 100 E10       29.59S FOG
AUDUBON *      LGT RAIN  50  46  87 E10       29.61F
CLARINDA *     CLOUDY    57  54  88 E12       29.55F
COUNCIL BLFS * CLOUDY    55  55 100 E10       29.56S
CRESTON *        N/A     55  55 100 E10       29.59S
HARLAN  *      CLOUDY    54  54 100 E9G16     29.61F FOG
LAMONI         CLOUDY    58  52  80 SE7       29.59S
RED OAK *      CLOUDY    57  55  94 E7        29.55F
SHENANDOAH *   CLOUDY    57  55  94 E15       29.52F
$$

IAZ047>049-059>061-072>074-084-250600-
   CENTRAL IOWA

CITY           SKY/WX    TMP DP  RH WIND       PRES   REMARKS
AMES           CLOUDY    48  42  80 E12       29.67F
ANKENY *       CLOUDY    48  45  87 E10G16    29.65F
CHARITON *     CLOUDY    52  52 100 E9        29.62F
DES MOINES     CLOUDY    50  44  80 E17       29.63F
GRINNELL*      CLOUDY    46  43  87 E13       29.69S
KNOXVILLE *    CLOUDY    50  45  81 E14       29.62F
MARSHALLTOWN   CLOUDY    47  42  83 E17       29.69S
PELLA *        MOCLDY    49  47  92 E12G18    29.66F
PERRY *        CLOUDY    50  45  81 E18       29.63F
$$

IAZ004>006-015-016-023>025-035-036-250600-
   NORTH CENTRAL IOWA

CITY           SKY/WX    TMP DP  RH WIND       PRES   REMARKS
ALGONA *       CLOUDY    46  43  87 E16       29.68F
CLARION *      CLOUDY    46  45  93 E17G25    29.68F
ESTHERVILLE    CLOUDY    45  42  89 SE15      29.68R
FORT DODGE *   CLOUDY    46  41  81 E16       29.67F
MASON CITY     CLOUDY    44  40  85 E18       29.73F
FOREST CITY *  CLOUDY    43  41  93 E17       29.71F
IOWA FALLS *   CLOUDY    46  43  87 E16       29.71F
$$

IAZ007>011-017>019-026>030-037>042-050>054-066-250600-
   NORTHEAST IOWA

CITY           SKY/WX    TMP DP  RH WIND       PRES   REMARKS
CEDAR RAPIDS   CLOUDY    44  32  62 E13       29.73R
CHARLES CITY * CLOUDY    43  41  93 E17G23    29.75F
CLINTON *      MOCLDY    43  39  87 E16       29.83R
DECORAH *      CLOUDY    43  39  87 E16G24    29.80F
DUBUQUE        CLOUDY    42  37  82 E16       29.81F
MONTICELLO *   LGT RAIN  43  43 100 E17G25    29.74F
OELWEIN *      CLOUDY    43  41  93 E22G29    29.77F
WATERLOO       CLOUDY    45  41  86 E17       29.74F
$$

IAZ064-065-067-068-078-250600-
   EAST CENTRAL IOWA

CITY           SKY/WX    TMP DP  RH WIND       PRES   REMARKS
DAVENPORT      CLOUDY    46  40  79 E16       29.78S
IOWA CITY      MOCLDY    48  42  80 E14G24    29.72F
MT. PLEASANT * CLOUDY    54  37  54 E10       29.70F
MUSCATINE *    CLOUDY    52  41  66 E13       29.74F
QUAD CITIES    CLOUDY    47  39  74 E15       29.78F
$$

IAZ062-063-075>077-085>089-095>099-250600-
   SOUTHEAST IOWA

CITY           SKY/WX    TMP DP  RH WIND       PRES   REMARKS
BURLINGTON     MOCLDY    55  37  50 E10       29.70F
FAIRFIELD *    CLOUDY    55  41  58 E10       29.68F
FORT MADISON * CLOUDY    57  41  54 SE12G18   29.70F
KEOKUK *       CLOUDY    59  46  63 SE10      29.67F
OSKALOOSA *    CLOUDY    50  45  81 E15       29.67F
CENTERVILLE *  CLOUDY    57  52  82 SE9       29.63F
OTTUMWA        CLOUDY    51  46  83 E14       29.65F
WASHINGTON *   CLOUDY    50  48  93 E13       29.70F
$$

ABBREVIATIONS USED IN REMARKS
   TC - TEMPERATURES IN CELSIUS
  WCI - WIND CHILL INDEX
   HX - HEAT INDEX
  VSB - VISIBILITY
$$




USA.gov is the U.S. government's official web portal to all federal, state and local government web resources and services.